User: anonymous   Login
Location: Unspecified
(0.0000°N, 0.0000°E)
Time: 20:09:11
(UTC+00:00)
Language:

DELFI C3 - Orbit

View from above orbital plane
View from above orbital plane
View from above satellite
View from above satellite

Ground track
Ground track

The orbit data is extracted from the following two-line orbital elements,

1 32789U 08021G   18115.15763476  .00001727  00000-0  12265-3 0  9991
2 32789  97.5175 171.3006 0014128 116.8822 243.3850 15.05942328543801
Epoch (UTC): 25 April 2018 03:46:59
Eccentricity: 0.0014128
inclination: 97.5175°
perigee height: 539 km
apogee height: 558 km
right ascension of ascending node: 171.3006°
argument of perigee: 116.8822°
revolutions per day: 15.05942328
mean anomaly at epoch: 243.3850°
orbit number at epoch: 54380

The dashed part of the orbit path shows where the satellite is in the earth's shadow,  

DLR